Belmar-Farmingdale, NJ

1:30 AM EST on December 06, 2019 (GMT -0500)
Allaire

Weather History for KBLM - October, 2019

Change the Weather History Date:

Sunday, October 27, 2019

  Actual Average Record
Temperature  
Mean Temperature 64 °F -  
Max Temperature 71 °F 57 °F 75 °F (2010)
Min Temperature 57 °F 42 °F 30 °F (2006)
Degree Days  
Heating Degree Days 2    
Growing Degree Days 14 (Base 50)    
Moisture  
Dew Point 60 °F    
Average Humidity 88    
Maximum Humidity 100    
Minimum Humidity 65    
Precipitation  
Precipitation 0.73 in - - ()
Sea Level Pressure  
Sea Level Pressure 29.90 in    
Wind  
Wind Speed 11 mph ()    
Max Wind Speed 20 mph    
Max Gust Speed 31 mph    
Visibility 8.3 miles    
Events Rain    
Averages and records for this station are not official NWS values.
T = Trace of Precipitation, MM = Missing Value Source: Averaged Metar Reports

Daily Weather History Graph

Daily Weather History Graph

Search for Another Location

Airport or City:

Astronomy

Oct. 27, 2019 Rise Set
Actual Time 7:19 AM EDT 6:00 PM EDT
Civil Twilight 6:52 AM EDT 6:28 PM EDT
Nautical Twilight 6:20 AM EDT 6:59 PM EDT
Astronomical Twilight 5:48 AM EDT 7:31 PM EDT
Moon 6:25 AM EDT (10/27) 6:08 PM EDT (10/27)
Length of Visible Light 11h 36m
Length of Day
10h 40m
Waning Crescent, 0% of the Moon is Illuminated
Oct 27
Waning Crescent
Oct 27
New
Nov 4
First Quarter
Nov 12
Full
Nov 19
Last Quarter

Hourly Weather History & Observations

Time (EDT) Temp. Dew Point Humidity Pressure Visibility Wind Dir Wind Speed Gust Speed Precip Events Conditions
12:56 AM 57.0 °F 51.1 °F 81% 30.22 in 10.0 mi East 9.2 mph - 0.00 in   Overcast
1:56 AM 57.9 °F 51.1 °F 78% 30.19 in 10.0 mi East 13.8 mph 19.6 mph N/A   Clear
2:56 AM 59.0 °F 53.1 °F 81% 30.16 in 10.0 mi East 13.8 mph 18.4 mph N/A   Clear
3:56 AM 59.0 °F 54.0 °F 83% 30.13 in 10.0 mi ESE 10.4 mph 18.4 mph N/A   Partly Cloudy
4:14 AM 60.8 °F 53.6 °F 77% 30.12 in 10.0 mi ESE 13.8 mph - N/A   Mostly Cloudy
4:56 AM 60.1 °F 55.9 °F 86% 30.10 in 10.0 mi East 13.8 mph - N/A   Overcast
5:56 AM 61.0 °F 55.9 °F 83% 30.08 in 10.0 mi ESE 13.8 mph - N/A   Overcast
6:15 AM 60.8 °F 57.2 °F 88% 30.07 in 10.0 mi ESE 11.5 mph 19.6 mph N/A   Overcast
6:56 AM 60.1 °F 57.0 °F 90% 30.05 in 10.0 mi ESE 11.5 mph - 0.00 in Rain Light Rain
7:14 AM 60.8 °F 57.2 °F 88% 30.03 in 9.0 mi ESE 11.5 mph - 0.01 in Rain Light Rain
7:45 AM 60.8 °F 57.2 °F 88% 30.01 in 7.0 mi ESE 12.7 mph 21.9 mph 0.04 in Rain Light Rain
7:56 AM 60.1 °F 57.9 °F 93% 30.01 in 8.0 mi ESE 13.8 mph 19.6 mph 0.06 in Rain Light Rain
8:56 AM 61.0 °F 59.0 °F 93% 29.98 in 10.0 mi ESE 19.6 mph 26.5 mph 0.00 in Rain Light Rain
9:49 AM 62.6 °F 60.8 °F 94% 29.94 in 9.0 mi ESE 15.0 mph 26.5 mph 0.01 in Rain Light Rain
10:56 AM 63.0 °F 62.1 °F 97% 29.89 in 3.0 mi SE 12.7 mph 23.0 mph 0.11 in Rain Light Rain
11:56 AM 64.0 °F 64.0 °F 100% 29.81 in 3.0 mi SE 19.6 mph 25.3 mph 0.07 in Rain Rain
12:05 PM 64.4 °F 64.4 °F 100% 29.80 in 2.5 mi SE 18.4 mph 29.9 mph 0.02 in Rain Light Rain
12:13 PM 64.4 °F 64.4 °F 100% 29.79 in 4.0 mi SE 19.6 mph 27.6 mph 0.03 in Rain Light Rain
12:27 PM 64.4 °F 64.4 °F 100% 29.79 in 2.0 mi SE 13.8 mph 29.9 mph 0.20 in Rain Heavy Rain
12:39 PM 64.4 °F 64.4 °F 100% 29.79 in 4.0 mi SSE 16.1 mph 31.1 mph 0.24 in Rain Light Rain
12:56 PM 66.0 °F 64.9 °F 96% 29.78 in 3.0 mi Variable 6.9 mph 19.6 mph 0.38 in Rain Heavy Rain
1:56 PM 68.0 °F 66.9 °F 96% 29.72 in 10.0 mi South 11.5 mph 18.4 mph 0.09 in Rain Light Rain
2:25 PM 69.8 °F 69.8 °F 100% 29.70 in 10.0 mi SSW 10.4 mph 20.7 mph 0.01 in   Overcast
2:56 PM 70.0 °F 69.1 °F 97% 29.70 in 3.0 mi SSW 13.8 mph 19.6 mph 0.01 in Rain Light Rain
3:06 PM 69.8 °F 69.8 °F 100% 29.70 in 10.0 mi WSW 10.4 mph 21.9 mph 0.01 in Rain Light Rain
3:48 PM 69.8 °F 68.0 °F 94% 29.70 in 10.0 mi SW 4.6 mph - 0.01 in   Overcast
3:56 PM 70.0 °F 68.0 °F 93% 29.70 in 10.0 mi SW 5.8 mph - 0.01 in   Overcast
4:56 PM 70.0 °F 66.0 °F 87% 29.74 in 10.0 mi West 13.8 mph 18.4 mph N/A   Overcast
5:05 PM 69.8 °F 64.4 °F 83% 29.74 in 10.0 mi West 9.2 mph 19.6 mph N/A   Overcast
5:56 PM 68.0 °F 63.0 °F 84% 29.77 in 10.0 mi West 5.8 mph - N/A   Clear
6:56 PM 66.0 °F 63.0 °F 90% 29.80 in 10.0 mi WSW 3.5 mph - N/A   Partly Cloudy
7:56 PM 64.9 °F 62.1 °F 90% 29.83 in 10.0 mi West 8.1 mph - N/A   Mostly Cloudy
8:56 PM 66.0 °F 54.0 °F 65% 29.86 in 10.0 mi WNW 13.8 mph - N/A   Clear
9:56 PM 63.0 °F 53.1 °F 70% 29.88 in 10.0 mi West 8.1 mph - N/A   Clear
10:56 PM 62.1 °F 51.1 °F 67% 29.91 in 10.0 mi WNW 16.1 mph 23.0 mph N/A   Clear
11:56 PM 60.1 °F 51.1 °F 72% 29.93 in 10.0 mi WNW 10.4 mph - N/A   Clear